Location: Dover
(48.8500°N, 53.9833°W)
Time: 07:23:33
(UTC+00:00)

CZ-2D R/B - Pass Details

Date: 14 November 2025
Orbit: 525 x 597 km, 98.0° (Epoch: 12 December)

Event Time Altitude Azimuth Distance (km) Brightness Sun altitude
Rises 20:59:59 0° 140° (SE) 2,780 6.7 -10.5°
Reaches altitude 10° 21:02:14 10° 131° (SE) 1,897 5.7 -10.9°
Maximum altitude 21:05:57 34° 67° (ENE) 989 4.1 -11.5°
Drops below altitude 10° 21:09:45 10° 3° (N) 1,940 5.9 -12.1°
Sets 21:12:05 0° 354° (N) 2,853 6.9 -12.5°
